Showing default

ORBCOMM FM 111, 40089

Orbit data source: Space-Track

ORBCOMM FM 111, 40089 is a payload satellite owned by Orbcomm (US) in LEO that was launched on Mon, 14 Jul 2014 UTC via an FALCON 9 launch vehicle from the Air Force Eastern Test Range (AFETR). Payloads include a variety of satellites, spacecraft, and rockets equipped with specific instruments for various scientific and technological missions. These include communications satellites like Starlink; space stations such as the ISS; scientific satellites like the Hubble; Earth observation satellites from companies like Planet Labs, Umbra, and HawkEye 360; GPS; miniature CubeSats for education and research; and military/defense satellites.

Loading next visibility...
ORBCOMM FM 111 details
Identifier
40089, 2014-040D
Orbit
LEO
Last TLE update10 hours ago
Origin
Flag of USOrbcomm (US / ORB)
ManufacturerSNC Louisville
MissionNon-operational Commercial Communications
Bus & MotorSN-100A, Unknown motor
Mass172 kg wet, 158 kg dry
Launch date (UTC)
2014-07-14 (10 years ago)
Launch vehicle
FALCON 9
Launch site
Air Force Eastern Test Range (AFETR)
Object type
Payload
Rocket body
Debris
Shape & HBRBox + 1 Pan + 1 Ant, 13 m
Radar Cross Section2.222 m², Medium (>0.1 m² and < 1m²)

Expand to show TLE details & history

TLE from 10 hours ago
0 ORBCOMM FM 111
1 40089U 14040D   24361.23840537  .00006770  00000-0  81203-3 0  9995
2 40089  47.0002 182.5735 0030035  87.2329 273.2005 14.84517718564515
Epoch: 2024-12-26T05:43Z
Definitive object data (Epoch: 2024-12-26T05:43:18.223Z)
Latitude0.00001°
Longitude1.52692°
Altitude614.208 km
Speed7.554 km/s
True Right ascension12h 10m 17s
True Declination0° 00' 00"
Sunlit
Object was in daylight at TLE epoch
Visualization TLE readout
Latitude0.10438°
Longitude-0.36592°
Altitude614.832 km
Speed7.553 km/s
Apparent Right ascension09h 05m 36s
Apparent Declination-41° 23' 02"
Sunlit
Object is in daylight
Visualization observer readout
Local Sidereal Time14:46:49
Azimuth233.842° WSW
Elevation-22.156°
Doppler factor1
Orbital elements
Apogee altitude637.357 km
Perigee altitude595.342 km
Semi-major axis6,994.486 km
Eccentricity0.0030035
Inclination47.0002°
RAAN182.5735°
Arg. of periapsis87.2329°
True anomaly272.85679°
Mean anomaly273.2005°
Eccentric anomaly273.02865°
Mean motion3.7103 °/min
BSTAR0.00081203
Orbital period97.03 mins
Loading maneuver chart data...
Loading historical data...
Loading historical data...
Loading historical data...
Loading historical data...
Loading historical data...
Loading historical data...
Loading historical data...

ORBCOMM FM 111 Visibility forecast

Observer location: undefined°, undefined

Span
Click to sort rows by Start time (UTC) header in descending order
Start Az.
Max El. time (UTC)
Max El. Az.
Max El.
End time (UTC)
End Az.
8 mins2024-12-26 15:35:49.671Z228.305° WSW2024-12-26 15:39:49.671Z171.693° S41.594°2024-12-26 15:43:49.671Z67.459° ENE
7 mins2024-12-26 17:18:49.671Z280.772° WNW2024-12-26 17:21:49.671Z343.22° N33.17°2024-12-26 17:25:49.671Z55.51° ENE
6 mins2024-12-26 19:01:49.671Z314.61° NW2024-12-26 19:03:49.671Z355.745° N28.21°2024-12-26 19:07:49.671Z68.501° E
6 mins2024-12-26 20:43:49.671Z307.277° NW2024-12-26 20:45:49.671Z349.086° N41.705°2024-12-26 20:49:49.671Z106.428° ESE
5 mins2024-12-26 22:25:49.671Z257.95° W2024-12-26 22:27:49.671Z214.565° SW24.714°2024-12-26 22:30:49.671Z166.337° S
6 mins2024-12-27 14:11:49.671Z181.203° SSW2024-12-27 14:13:49.671Z148.407° SSE21.61°2024-12-27 14:17:49.671Z84.466° E
|